Register | Login
Attackpoint - performance and training tools for orienteering athletes

Common Leg: 103 – 99

OCIN Flying Pig XXIV - 2022 Junior Nationals (Apr 3, 2022) - this leg is used on the following courses:

Combined splits

#
1. Glennnnn 51 OCIN_FP2022_Sunday_Classic_2022-04-03_11 Blue
1. barrett 51 OCIN_FP2022_Sunday_Classic_2022-04-03_11 Blue
3. Mason Lotempio 54 +3 6% OCIN_FP2022_Sunday_Classic_2022-04-03_9 Green C
4. BigWillyStyle 55 +4 8% OCIN_FP2022_Sunday_Classic_2022-04-03_11 Blue
5. Ben Brady 56 +5 10% OCIN_FP2022_Sunday_Classic_2022-04-03_9 Green C
6. Luke Menzie 57 +6 12% OCIN_FP2022_Sunday_Classic_2022-04-03_9 Green C
6. Danny Riley 57 +6 12% OCIN_FP2022_Sunday_Classic_2022-04-03_11 Blue
8. inter_pro 59 +8 16% OCIN_FP2022_Sunday_Classic_2022-04-03_11 Blue
9. Ian Dunlap 1:00 +9 18% OCIN_FP2022_Sunday_Classic_2022-04-03_9 Green C
10. Aragorn 1:01 +10 20% OCIN_FP2022_Sunday_Classic_2022-04-03_11 Blue
11. Roman Colley 1:02 +11 22% OCIN_FP2022_Sunday_Classic_2022-04-03_9 Green C
12. Conner Malone 1:05 +14 27% OCIN_FP2022_Sunday_Classic_2022-04-03_9 Green C
13. zsibthorp 1:07 +16 31% OCIN_FP2022_Sunday_Classic_2022-04-03_9 Green C
13. Maricel Olaru 1:07 +16 31% OCIN_FP2022_Sunday_Classic_2022-04-03_11 Blue
15. Jim Benton 1:08 +17 33% OCIN_FP2022_Sunday_Classic_2022-04-03_11 Blue
15. Bethany Jablon 1:08 +17 33% OCIN_FP2022_Sunday_Classic_2022-04-03_9 Green C
17. Gabriel DeGracia 1:10 +19 37% OCIN_FP2022_Sunday_Classic_2022-04-03_9 Green C
18. Ava 1:11 +20 39% OCIN_FP2022_Sunday_Classic_2022-04-03_6 Brown B
18. Josie Olson 1:11 +20 39% OCIN_FP2022_Sunday_Classic_2022-04-03_9 Green C
18. ZariahZ 1:11 +20 39% OCIN_FP2022_Sunday_Classic_2022-04-03_6 Brown B
18. rastridge 1:11 +20 39% OCIN_FP2022_Sunday_Classic_2022-04-03_9 Green C
18. lily. 1:11 +20 39% OCIN_FP2022_Sunday_Classic_2022-04-03_9 Green C
23. jcolleran 1:13 +22 43% OCIN_FP2022_Sunday_Classic_2022-04-03_9 Green C
24. Priscilla Kelley 1:14 +23 45% OCIN_FP2022_Sunday_Classic_2022-04-03_6 Brown B
24. annikamihata 1:14 +23 45% OCIN_FP2022_Sunday_Classic_2022-04-03_9 Green C
24. BoulderBob 1:14 +23 45% OCIN_FP2022_Sunday_Classic_2022-04-03_6 Brown B
27. John Barrett 1:15 +24 47% OCIN_FP2022_Sunday_Classic_2022-04-03_11 Blue
27. Chiori Shimizu 1:15 +24 47% OCIN_FP2022_Sunday_Classic_2022-04-03_6 Brown B
29. MaxA 1:17 +26 51% OCIN_FP2022_Sunday_Classic_2022-04-03_9 Green C
29. crailey23 1:17 +26 51% OCIN_FP2022_Sunday_Classic_2022-04-03_9 Green C
29. AubreeW 1:17 +26 51% OCIN_FP2022_Sunday_Classic_2022-04-03_6 Brown B
32. Walter Siegenthaler 1:19 +28 55% OCIN_FP2022_Sunday_Classic_2022-04-03_6 Brown B
33. SherlockHolmes 1:22 +31 61% OCIN_FP2022_Sunday_Classic_2022-04-03_6 Brown B
33. Tundra/Desert 1:22 +31 61% OCIN_FP2022_Sunday_Classic_2022-04-03_11 Blue
35. fzendt 1:23 +32 63% OCIN_FP2022_Sunday_Classic_2022-04-03_6 Brown B
36. Joshua Hamilton 1:24 +33 65% OCIN_FP2022_Sunday_Classic_2022-04-03_9 Green C
36. jeremycolgan 1:24 +33 65% OCIN_FP2022_Sunday_Classic_2022-04-03_11 Blue
38. Sandbo 1:25 +34 67% OCIN_FP2022_Sunday_Classic_2022-04-03_9 Green C
38. Ing Uhlin 1:25 +34 67% OCIN_FP2022_Sunday_Classic_2022-04-03_6 Brown B
40. gzoppi 1:27 +36 71% OCIN_FP2022_Sunday_Classic_2022-04-03_9 Green C
40. Brenden Doogan 1:27 +36 71% OCIN_FP2022_Sunday_Classic_2022-04-03_9 Green C
42. Soupbone 1:29 +38 75% OCIN_FP2022_Sunday_Classic_2022-04-03_6 Brown B
43. CoZ 1:30 +39 76% OCIN_FP2022_Sunday_Classic_2022-04-03_6 Brown B
43. Andrew Bak 1:30 +39 76% OCIN_FP2022_Sunday_Classic_2022-04-03_11 Blue
45. Lukas Lange 1:31 +40 78% OCIN_FP2022_Sunday_Classic_2022-04-03_9 Green C
45. justgrace 1:31 +40 78% OCIN_FP2022_Sunday_Classic_2022-04-03_9 Green C
47. peggyd 1:34 +43 84% OCIN_FP2022_Sunday_Classic_2022-04-03_6 Brown B
47. andib 1:34 +43 84% OCIN_FP2022_Sunday_Classic_2022-04-03_6 Brown B
49. o-maps 1:35 +44 86% OCIN_FP2022_Sunday_Classic_2022-04-03_6 Brown B
49. Sahara Brewington 1:35 +44 86% OCIN_FP2022_Sunday_Classic_2022-04-03_6 Brown B
51. GlenT 1:36 +45 88% OCIN_FP2022_Sunday_Classic_2022-04-03_6 Brown B
51. Jack Barkley 1:36 +45 88% OCIN_FP2022_Sunday_Classic_2022-04-03_9 Green C
53. Alex Bowles 1:38 +47 92% OCIN_FP2022_Sunday_Classic_2022-04-03_9 Green C
53. Finley Miller 1:38 +47 92% OCIN_FP2022_Sunday_Classic_2022-04-03_9 Green C
53. pgg 1:38 +47 92% OCIN_FP2022_Sunday_Classic_2022-04-03_11 Blue
56. David Hunter 1:40 +49 96% OCIN_FP2022_Sunday_Classic_2022-04-03_6 Brown B
57. cmpblla 1:41 +50 98% OCIN_FP2022_Sunday_Classic_2022-04-03_9 Green C
57. Michael Schuh 1:41 +50 98% OCIN_FP2022_Sunday_Classic_2022-04-03_6 Brown B
57. Sam Smith 1:41 +50 98% OCIN_FP2022_Sunday_Classic_2022-04-03_6 Brown B
60. Audrey Javadoff 1:45 +54 106% OCIN_FP2022_Sunday_Classic_2022-04-03_9 Green C
61. Eileen Breseman 1:47 +56 110% OCIN_FP2022_Sunday_Classic_2022-04-03_6 Brown B
62. TomN 1:49 +58 114% OCIN_FP2022_Sunday_Classic_2022-04-03_6 Brown B
63. Florence Tan 1:50 +59 116% OCIN_FP2022_Sunday_Classic_2022-04-03_6 Brown B
63. Salinda 1:50 +59 116% OCIN_FP2022_Sunday_Classic_2022-04-03_9 Green C
65. Ralph Courtney 1:55 +1:04 125% OCIN_FP2022_Sunday_Classic_2022-04-03_6 Brown B
66. smittyo 1:57 +1:06 129% OCIN_FP2022_Sunday_Classic_2022-04-03_6 Brown B
67. Rob Wilkison 1:59 +1:08 133% OCIN_FP2022_Sunday_Classic_2022-04-03_6 Brown B
68. Diane McKim 2:06 +1:15 147% OCIN_FP2022_Sunday_Classic_2022-04-03_6 Brown B
69. Linette Barry 2:17 +1:26 169% OCIN_FP2022_Sunday_Classic_2022-04-03_6 Brown B
70. Vera Eames 2:21 +1:30 176% OCIN_FP2022_Sunday_Classic_2022-04-03_6 Brown B
71. Judith Martineau 2:22 +1:31 178% OCIN_FP2022_Sunday_Classic_2022-04-03_6 Brown B
72. kkling 2:33 +1:42 200% OCIN_FP2022_Sunday_Classic_2022-04-03_6 Brown B
73. Bill Donnelly 2:39 +1:48 212% OCIN_FP2022_Sunday_Classic_2022-04-03_11 Blue
74. Angie Barrett 2:41 +1:50 216% OCIN_FP2022_Sunday_Classic_2022-04-03_6 Brown B
74. Valerie Benton 2:41 +1:50 216% OCIN_FP2022_Sunday_Classic_2022-04-03_6 Brown B
76. Joe Ratermann 2:45 +1:54 224% OCIN_FP2022_Sunday_Classic_2022-04-03_6 Brown B
77. Sophie Ratermann 2:46 +1:55 225% OCIN_FP2022_Sunday_Classic_2022-04-03_9 Green C
78. Jim Carter 3:11 +2:20 275% OCIN_FP2022_Sunday_Classic_2022-04-03_6 Brown B
79. Vinton Wolfe 5:25 +4:34 537% OCIN_FP2022_Sunday_Classic_2022-04-03_6 Brown B